This is the latest recevied weather packets stored in our database for station/object K7NDG. If no packets are shown the sender has not sent any weather packets the latest 10 day(s).
| Time | Temp. | Humidity | Pressure | Rain* | Wind** | Luminosity | Snow |
|---|---|---|---|---|---|---|---|
| 1777522315 | 12.78° C | 78% | 1022.4 hPa | 0 mm | - | 0 W/m² | - |
| 1777522012 | 12.78° C | 77% | 1022.5 hPa | 0 mm | - | 0 W/m² | - |
| 1777521708 | 12.78° C | 76% | 1022.2 hPa | 0 mm | - | 0 W/m² | - |
| 1777521406 | 13.33° C | 76% | 1022.2 hPa | 0 mm | - | 0 W/m² | - |
| 1777521102 | 13.33° C | 75% | 1022.2 hPa | 0 mm | - | 0 W/m² | - |
| 1777520800 | 13.33° C | 74% | 1022 hPa | 0 mm | - | 0 W/m² | - |
| 1777520497 | 13.89° C | 73% | 1022.3 hPa | 0 mm | - | 0 W/m² | - |
| 1777520193 | 13.89° C | 73% | 1022.1 hPa | 0 mm | - | 0 W/m² | - |
| 1777519891 | 13.89° C | 72% | 1022.2 hPa | 0 mm | - | 0 W/m² | - |
| 1777519588 | 13.89° C | 72% | 1022 hPa | 0 mm | - | 0 W/m² | - |
| 1777519284 | 14.44° C | 72% | 1022.2 hPa | 0 mm | - | 0 W/m² | - |
| 1777518981 | 14.44° C | 71% | 1022 hPa | 0 mm | - | 1 W/m² | - |
| 1777518677 | 15° C | 70% | 1022 hPa | 0 mm | - | 2 W/m² | - |
| 1777518374 | 15° C | 69% | 1021.8 hPa | 0 mm | - | 5 W/m² | - |
| 1777518069 | 15.56° C | 68% | 1021.9 hPa | 0 mm | - | 7 W/m² | - |
| 1777517765 | 15.56° C | 67% | 1021.8 hPa | 0 mm | - | 10 W/m² | - |
| 1777517462 | 16.11° C | 67% | 1021.8 hPa | 0 mm | - | 12 W/m² | - |
| 1777517160 | 16.11° C | 66% | 1021.9 hPa | 0 mm | - | 15 W/m² | - |
| 1777516858 | 16.67° C | 65% | 1022 hPa | 0 mm | - | 18 W/m² | - |
| 1777516555 | 16.67° C | 64% | 1021.7 hPa | 0 mm | - | 20 W/m² | - |
| 1777516250 | 17.22° C | 63% | 1021.8 hPa | 0 mm | - | 22 W/m² | - |
| 1777515947 | 17.22° C | 63% | 1022 hPa | 0 mm | - | 23 W/m² | - |
| 1777515644 | 17.78° C | 62% | 1021.6 hPa | 0 mm | - | 26 W/m² | - |
| 1777515341 | 17.78° C | 61% | 1021.9 hPa | 0 mm | - | 31 W/m² | - |
| 1777515037 | 17.78° C | 61% | 1021.9 hPa | 0 mm | - | 53 W/m² | - |
* Rain latest hour (hover to see other rain measurements)
** Current wind speed in m/s (hover to see current wind gust speed)